Appleton, WI

5:14 PM CDT on October 13, 2019 (GMT -0500)
Outagamie County Regional

Weather History for KATW - August, 2019

Change the Weather History Date:

Tuesday, August 6, 2019

  Actual Average Record
Temperature  
Mean Temperature 71 °F -  
Max Temperature 80 °F 79 °F 93 °F (2001)
Min Temperature 62 °F 59 °F 48 °F (1976)
Cooling Degree Days 6    
Growing Degree Days 21 (Base 50)    
Moisture  
Dew Point 60 °F    
Average Humidity 78    
Maximum Humidity 100    
Minimum Humidity 32    
Precipitation  
Precipitation 0.06 in - - ()
Sea Level Pressure  
Sea Level Pressure 29.80 in    
Wind  
Wind Speed 6 mph (West)    
Max Wind Speed 10 mph    
Max Gust Speed -    
Visibility 9 miles    
Events      
Averages and records for this station are not official NWS values.
T = Trace of Precipitation, MM = Missing Value Source: NWS Daily Summary

Daily Weather History Graph

Daily Weather History Graph

Search for Another Location

Airport or City:

Astronomy

Aug. 06, 2019 Rise Set
Actual Time 5:46 AM CDT 8:12 PM CDT
Civil Twilight 5:14 AM CDT 8:44 PM CDT
Nautical Twilight 4:33 AM CDT 9:25 PM CDT
Astronomical Twilight 3:47 AM CDT 10:10 PM CDT
Moon 12:25 PM CDT (8/6) 11:42 PM CDT (8/6)
Length of Visible Light 15h 30m
Length of Day
14h 25m
Waxing Crescent, 39% of the Moon is Illuminated
Aug 6
Waxing Crescent
Aug 7
First Quarter
Aug 15
Full
Aug 23
Last Quarter
Aug 30
New

Hourly Weather History & Observations

Time (CDT) Temp. Dew Point Humidity Pressure Visibility Wind Dir Wind Speed Gust Speed Precip Events Conditions
12:15 AM 64.4 °F 64.4 °F 100% 29.78 in 10.0 mi West 4.6 mph - N/A   Mostly Cloudy
12:35 AM 64.4 °F 64.4 °F 100% 29.79 in 10.0 mi WSW 4.6 mph - 0.01 in   Overcast
12:55 AM 64.4 °F 64.4 °F 100% 29.79 in 10.0 mi WSW 4.6 mph - 0.01 in   Overcast
1:15 AM 64.4 °F 64.4 °F 100% 29.79 in 10.0 mi WSW 6.9 mph - N/A   Overcast
1:35 AM 64.4 °F 64.4 °F 100% 29.78 in 10.0 mi WSW 5.8 mph - N/A   Overcast
1:55 AM 64.4 °F 64.4 °F 100% 29.78 in 10.0 mi WSW 8.1 mph - 0.01 in   Overcast
2:15 AM 64.4 °F 64.4 °F 100% 29.78 in 10.0 mi West 6.9 mph - N/A   Overcast
2:35 AM 64.4 °F 64.4 °F 100% 29.78 in 10.0 mi West 6.9 mph - 0.01 in   Overcast
2:55 AM 64.4 °F 64.4 °F 100% 29.79 in 10.0 mi West 6.9 mph - 0.01 in   Overcast
3:15 AM 64.4 °F 64.4 °F 100% 29.79 in 10.0 mi West 6.9 mph - N/A   Overcast
3:35 AM 64.4 °F 64.4 °F 100% 29.78 in 10.0 mi West 6.9 mph - N/A   Overcast
3:55 AM 64.4 °F 64.4 °F 100% 29.78 in 10.0 mi WNW 5.8 mph - 0.01 in   Overcast
4:15 AM 64.4 °F 64.4 °F 100% 29.78 in 7.0 mi WNW 3.5 mph - 0.01 in   Overcast
4:35 AM 62.6 °F 62.6 °F 100% 29.78 in 5.0 mi WNW 3.5 mph - 0.01 in   Overcast
4:55 AM 62.6 °F 62.6 °F 100% 29.79 in 7.0 mi West 3.5 mph - 0.01 in   Overcast
5:15 AM 62.6 °F 62.6 °F 100% 29.79 in 4.0 mi WNW 4.6 mph - 0.01 in   Overcast
5:20 AM 64.4 °F 64.4 °F 100% 29.79 in 2.0 mi WNW 4.6 mph - N/A   Overcast
5:45 AM 64.4 °F 64.4 °F 100% 29.80 in 5.0 mi WNW 5.8 mph - N/A   Overcast
6:45 AM 64.4 °F 64.4 °F 100% 29.81 in 7.0 mi NNW 8.1 mph - N/A   Mostly Cloudy
7:45 AM 64.4 °F 64.4 °F 100% 29.82 in 10.0 mi NNW 4.6 mph - N/A   Mostly Cloudy
8:45 AM 66.2 °F 64.4 °F 94% 29.82 in 10.0 mi NW 4.6 mph - N/A   Scattered Clouds
9:45 AM 71.6 °F 60.8 °F 69% 29.82 in 10.0 mi NNW 4.6 mph - N/A   Scattered Clouds
10:45 AM 73.4 °F 59.0 °F 61% 29.83 in 10.0 mi Variable 4.6 mph - N/A   Scattered Clouds
11:45 AM 77.0 °F 59.0 °F 54% 29.84 in 10.0 mi Variable 5.8 mph - N/A   Scattered Clouds
12:45 PM 78.8 °F 53.6 °F 42% 29.83 in 10.0 mi Variable 4.6 mph - N/A   Mostly Cloudy
1:45 PM 80.6 °F 50.0 °F 34% 29.82 in 10.0 mi Variable 4.6 mph - N/A   Mostly Cloudy
2:45 PM 78.8 °F 53.6 °F 42% 29.82 in 10.0 mi Variable 5.8 mph - N/A   Mostly Cloudy
3:45 PM 80.6 °F 51.8 °F 37% 29.81 in 10.0 mi WNW 8.1 mph - N/A   Mostly Cloudy
4:45 PM 80.6 °F 48.2 °F 32% 29.80 in 10.0 mi WNW 10.4 mph - N/A   Mostly Cloudy
5:45 PM 80.6 °F 51.8 °F 37% 29.80 in 10.0 mi WNW 10.4 mph - N/A   Scattered Clouds
6:45 PM 78.8 °F 53.6 °F 42% 29.80 in 10.0 mi West 6.9 mph - N/A   Scattered Clouds
7:45 PM 75.2 °F 53.6 °F 47% 29.79 in 10.0 mi West 6.9 mph - N/A   Scattered Clouds
8:45 PM 71.6 °F 53.6 °F 53% 29.79 in 10.0 mi West 4.6 mph - N/A   Scattered Clouds
9:45 PM 68.0 °F 55.4 °F 64% 29.81 in 10.0 mi West 6.9 mph - N/A   Scattered Clouds
10:45 PM 66.2 °F 55.4 °F 68% 29.81 in 10.0 mi West 8.1 mph - N/A   Scattered Clouds
10:55 PM 66.2 °F 53.6 °F 64% 29.81 in 10.0 mi West 6.9 mph - N/A   Clear
11:15 PM 64.4 °F 53.6 °F 68% 29.82 in 10.0 mi West 8.1 mph - N/A   Clear
11:35 PM 64.4 °F 53.6 °F 68% 29.82 in 10.0 mi West 8.1 mph - N/A   Clear
11:55 PM 64.4 °F 53.6 °F 68% 29.82 in 10.0 mi West 8.1 mph - N/A   Clear